Tracking 19832 objects as of 24-Aug-2019
HD Live streaming from Space Station
objects crossing your sky now

SL-12 DEB

Track SL-12 DEB now!
10-day predictions


NORAD ID: 41701
Int'l Code: 2010-007T
Perigee: 895.9 km
Apogee: 19,152.9 km
Inclination: 65.4 °
Period: 348.2 minutes
Semi major axis: 16395 km
RCS: Unknown
Launch date: March 1, 2010
Source: Commonwealth of Independent States (former USSR) (CIS)
Launch site: TYURATAM MISSILE AND SPACE COMPLEX (TTMTR)

Note: This is SATELLITE DEBRIS
aabbcc
Your satellite tracking list
Your tracking list is empty




NASA's NSSDC Master Catalog

Two Line Element Set (TLE):
1 41701U 10007T   19235.76190450  .00000542  00000-0  13635-1 0  9993
2 41701  65.4221  76.5022 5567720  31.4638 352.3543  4.13543204 76143
Source of the keplerian elements: AFSPC